Location: Maccacari
(45.1333°N, 11.1333°E)
Time: 22:57:34
(UTC+00:00)

Cosmos 1844 Rocket - Pass Details

Date: 18 September 2020
Orbit: 823 x 846 km, 71.0° (Epoch: 25 October)

Event Time Altitude Azimuth Distance (km) Brightness Sun altitude
Rises 19:38:03 0° 208° (SSW) 3,345 5.8 -24.1°
Reaches altitude 10° 19:40:28 10° 210° (SSW) 2,417 5.1 -24.5°
Maximum altitude 19:46:01 77° 297° (WNW) 851 2.7 -25.3°
Drops below altitude 10° 19:51:37 10° 23° (NNE) 2,443 5.2 -26.2°
Sets 19:54:05 0° 25° (NNE) 3,383 5.9 -26.5°
